If you wish to contribute or participate in the discussions about articles you are invited to join SKYbrary as a registered user

 Actions

Phu Quoc Airport

From SKYbrary Wiki

VVPQ
Airport
ICAO: VVPQ – IATA: PQC
Summary
Name Phu Quoc Airport
Region Asia and Pacific
Territory Vietnam VN.gif
Location Duong To, Kien Giang
Serving Phu Quoc
Elevation 11.278 m
37 ft11.278 m
Coordinates 10° 10' 18.01" N, 103° 59' 28.00" E
Runways
Designator Length Width Surface ROPS
8/26 2103 m6,899.606 ft
29 m95.144 ft
ASP /


METAR
Observation VVPQ 220800Z 25004KT 220V280 9000 SCT015 SCT040 29/24 Q1008 NOSIG
Station Phu Quoc Airport
Date/Time 22 September 2019 08:00:00
Wind direction 250°
Wind speed 04 kts
Lowest cloud amount scattered clouds
Temperature 29°C
Dew point 24°C
Humidity 74%
QNH 1008 hPa
Weather condition n/a

Phu Quoc International Airport is an international airport that was completed in 2012 on Phú Quốc Island, in southern Vietnam.

Climatology

Tropical monsoon climate (Köppen climate classification Am)

Maps

Terrain

Loading map...

Airport Layout

Loading map...


Accidents & Serious Incidents at or in vicinity of VVPQ

None on SKYbrary